Location: Unspecified
(37.6100°N, 2.7800°W)
Time: 21:41:15
(UTC+00:00)

ISS - Visible Passes

Search period start: 12 December 2018 00:00
Search period end: 22 December 2018 00:00
Orbit: 401 x 408 km, 51.6° (Epoch: 13 December)

Date Brightness Start Highest point End Pass type
(mag) Time Alt. Az. Time Alt. Az. Time Alt. Az.
12 Dec -3.9 17:57:40 10° NW 18:00:56 69° NE 18:03:34 14° ESE visible
13 Dec -1.2 18:42:31 10° W 18:45:01 20° SW 18:47:30 10° S visible
14 Dec -2.5 17:49:53 10° WNW 17:52:59 41° SW 17:56:04 10° SSE visible
16 Dec -0.6 17:42:46 10° W 17:44:50 16° SW 17:46:54 10° S visible
21 Dec -1.0 06:51:54 10° S 06:54:36 24° SE 06:57:18 10° ENE visible
